Waukegan, IL

12:10 AM CST on February 11, 2016 (GMT -0600)
Waukegan Regional

Weather History for KUGN - October, 2011

Change the Weather History Date:

Friday, October 21, 2011

  Actual Average Record
Temperature  
Mean Temperature 45 °F -  
Max Temperature 55 °F 58 °F 79 °F (2007)
Min Temperature 35 °F 41 °F 29 °F (2013)
Degree Days  
Heating Degree Days 20 15  
Month to date heating degree days 269  
Since 1 July heating degree days 435  
Cooling Degree Days 0 0  
Month to date cooling degree days 7  
Year to date cooling degree days 564  
Moisture  
Dew Point 34 °F    
Average Humidity 70    
Maximum Humidity 89    
Minimum Humidity 43    
Precipitation  
Precipitation 0.00 in 0.09 in 0.28 in (2006)
Month to date precipitation 1.97  
Year to date precipitation 29.88  
Sea Level Pressure  
Sea Level Pressure 30.03 in    
Wind  
Wind Speed 4 mph (WNW)    
Max Wind Speed 7 mph    
Max Gust Speed -    
Visibility 10 miles    
Events      
T = Trace of Precipitation, MM = Missing Value Source: NWS Daily Summary

Daily Weather History Graph

Daily Weather History Graph

Search for Another Location

Airport or City:

Trip Planner

Search our weather history database for the weather conditions in past years. The results will help you decide how hot, cold, wet, or windy it might be!

Date:

Astronomy

Oct. 21, 2011 Rise Set
Actual Time 7:11 AM CDT 6:00 PM CDT
Civil Twilight 6:42 AM CDT 6:28 PM CDT
Nautical Twilight 6:09 AM CDT 7:01 PM CDT
Astronomical Twilight 5:37 AM CDT 7:34 PM CDT
Moon 12:53 AM CDT (10/21) 2:51 PM CDT (10/21)
Length of Visible Light 11h 46m
Length of Day
10h 49m
Waning Crescent, 33% of the Moon is Illuminated
Oct 21
Waning Crescent
Oct 26
New
Nov 2
First Quarter
Nov 10
Full
Nov 18
Last Quarter

Hourly Weather History & Observations

Time (CDT) Temp. Windchill Dew Point Humidity Pressure Visibility Wind Dir Wind Speed Gust Speed Precip Events Conditions
12:52 AM 43.0 °F 40.3 °F 35.1 °F 74% 29.90 in 10.0 mi WNW 4.6 mph - N/A   Scattered Clouds
1:52 AM 39.9 °F - 35.1 °F 83% 29.92 in 10.0 mi Calm Calm - N/A   Clear
2:52 AM 39.0 °F 35.7 °F 34.0 °F 82% 29.94 in 10.0 mi West 4.6 mph - N/A   Clear
4:52 AM 37.0 °F 33.3 °F 33.1 °F 86% 29.97 in 10.0 mi WNW 4.6 mph - N/A   Clear
5:52 AM 36.0 °F 33.3 °F 32.0 °F 86% 29.99 in 10.0 mi WNW 3.5 mph - N/A   Clear
6:52 AM 35.1 °F 31.0 °F 32.0 °F 89% 30.02 in 10.0 mi WNW 4.6 mph - N/A   Partly Cloudy
7:50 AM 37.4 °F 33.8 °F 33.8 °F 87% 30.02 in 10.0 mi WNW 4.6 mph - N/A   Mostly Cloudy
7:52 AM 39.0 °F 36.8 °F 34.0 °F 82% 30.04 in 10.0 mi WNW 3.5 mph - N/A   Scattered Clouds
8:52 AM 42.1 °F 38.4 °F 34.0 °F 73% 30.06 in 10.0 mi WNW 5.8 mph - N/A   Scattered Clouds
9:06 AM 42.8 °F 39.3 °F 33.8 °F 70% 30.04 in 10.0 mi Variable 5.8 mph - N/A   Clear
9:07 AM 42.8 °F 40.1 °F 33.8 °F 70% 30.04 in 10.0 mi NW 4.6 mph - N/A   Clear
10:52 AM 46.9 °F - 35.1 °F 63% 30.07 in 10.0 mi NNW 4.6 mph - N/A   Partly Cloudy
11:52 AM 50.0 °F - 36.0 °F 59% 30.07 in 10.0 mi West 6.9 mph - N/A   Scattered Clouds
12:52 PM 50.0 °F - 35.1 °F 57% 30.06 in 10.0 mi Variable 3.5 mph - N/A   Clear
1:52 PM 52.0 °F - 35.1 °F 53% 30.04 in 10.0 mi Variable 3.5 mph - N/A   Clear
2:52 PM 53.1 °F - 34.0 °F 48% 30.05 in 10.0 mi WNW 6.9 mph - N/A   Clear
3:52 PM 55.0 °F - 33.1 °F 43% 30.05 in 10.0 mi WNW 6.9 mph - N/A   Clear
4:52 PM 54.0 °F - 33.1 °F 45% 30.05 in 10.0 mi West 4.6 mph - N/A   Clear
5:52 PM 51.1 °F - 33.1 °F 50% 30.06 in 10.0 mi Calm Calm - N/A   Clear
6:52 PM 42.1 °F - 34.0 °F 73% 30.08 in 10.0 mi Calm Calm - N/A   Clear
7:52 PM 39.0 °F - 34.0 °F 82% 30.08 in 10.0 mi Calm Calm - N/A   Clear
8:52 PM 39.0 °F - 33.1 °F 79% 30.08 in 10.0 mi Calm Calm - N/A   Clear
10:52 PM 41.0 °F 39.0 °F 33.1 °F 73% 30.07 in 10.0 mi WSW 3.5 mph - N/A   Clear
11:52 PM 39.0 °F 36.8 °F 32.0 °F 76% 30.06 in 10.0 mi WSW 3.5 mph - N/A   Clear